Location: Acequia del Cap
(41.7000°N, 0.6167°E)
Time: 00:56:55
(UTC+00:00)

Cosmos 2195 Rocket - Pass Details

Date: 07 August 2020
Orbit: 949 x 992 km, 82.9° (Epoch: 22 September)

Event Time Altitude Azimuth Distance (km) Brightness Sun altitude
Rises 01:27:46 0° 351° (N) 3,699 8.4 -28.8°
Reaches altitude 10° 01:30:17 10° 351° (N) 2,752 7.5 -28.6°
Maximum altitude 01:36:37 85° 265° (W) 1,000 4.4 -28.1°
Enters shadow 01:37:07 77° 196° (SSW) 1,020 4.3 -28.1°
